STARLINK-31703 (59861 NORAD) Tracking and Keplerian Element Data

This shows tracking and keplerian element data for the satellite.

Feedback or suggestion? Click here.




ElementValue
Catalog59861
NameSTARLINK-31703
Epoch Orbit294
Epoch Day160.16667824
Epoch Year2024
RAAN328.0367
Inclination43.0021
Eccentricity0.0001977
Argument of Perigee270.875
Mean Anonmoly195.62
Mean Motion15.73614216
Decay Rate-0.01621635
L11 59861U 24098D 24160.16667824 -.01621635 00000+0 -12636-1 0 9999
L22 59861 43.0021 328.0367 0001977 270.8750 195.6200 15.73614216 2947



Live tracking and technical data element details for STARLINK-31703 (NORAD 59861). STARLINK-31703 can be tracked NOW for your location showing map with azimuth and elevation plus other details from your city location.







IsCatalogInMostPopularTable: catalog: 59861, numindb: 9
Update: records affected: 1



GetName: 59861 STARLINK-31703

Hit Count: updated at: Thu, 25 Jul 2024 00:45:44 GMT